Wetterdaten von Donnerstag, 14.10.2021 17:20 bis Freitag, 15.10.2021 17:10
Datum/Zeit Temp. A. Feuchte Luftdruck Regen Solar Sonne Wind Windben Richtung
14.10.2021 17:20 12,7 C 92 % 1.020,8 hpa 35 W/m 4,8 km/h 16,1 km/h W
14.10.2021 17:30 12,7 C 92 % 1.020,7 hpa 30 W/m 4,8 km/h 9,7 km/h W
14.10.2021 17:40 12,7 C 92 % 1.020,8 hpa 23 W/m 3,2 km/h 14,5 km/h S/SW
14.10.2021 17:50 12,7 C 91 % 1.020,7 hpa 13 W/m 3,2 km/h 11,3 km/h S/SW
14.10.2021 18:00 12,7 C 91 % 1.020,7 hpa 14 W/m 3,2 km/h 9,7 km/h W
14.10.2021 18:10 12,7 C 91 % 1.020,6 hpa 11 W/m 3,2 km/h 11,3 km/h S/SW
14.10.2021 18:20 12,7 C 91 % 1.020,6 hpa 6 W/m 3,2 km/h 9,7 km/h W
14.10.2021 18:30 12,7 C 91 % 1.020,5 hpa 1 W/m 3,2 km/h 9,7 km/h W
14.10.2021 18:40 12,7 C 90 % 1.020,5 hpa 3,2 km/h 11,3 km/h S/SW
14.10.2021 18:50 12,6 C 90 % 1.020,4 hpa 1,6 km/h 12,9 km/h S/SW
14.10.2021 19:00 12,6 C 90 % 1.020,3 hpa 3,2 km/h 11,3 km/h W
14.10.2021 19:10 12,6 C 90 % 1.020,4 hpa 3,2 km/h 11,3 km/h W
14.10.2021 19:20 12,5 C 89 % 1.020,4 hpa 3,2 km/h 11,3 km/h W
14.10.2021 19:30 12,5 C 89 % 1.020,3 hpa 3,2 km/h 11,3 km/h W
14.10.2021 19:40 12,5 C 89 % 1.020,3 hpa 1,6 km/h 4,8 km/h S/SW
14.10.2021 19:50 12,5 C 89 % 1.020,3 hpa 1,6 km/h 12,9 km/h S/SW
14.10.2021 20:00 12,5 C 89 % 1.020,3 hpa 3,2 km/h 8,0 km/h S/SW
14.10.2021 20:10 12,5 C 89 % 1.020,0 hpa 1,6 km/h 11,3 km/h S/SW
14.10.2021 20:20 12,4 C 89 % 1.019,8 hpa 1,6 km/h 6,4 km/h S
14.10.2021 20:30 12,4 C 89 % 1.020,0 hpa 3,2 km/h 11,3 km/h S/SW
14.10.2021 20:40 12,4 C 89 % 1.019,6 hpa 3,2 km/h 11,3 km/h S/SW
14.10.2021 20:50 12,4 C 89 % 1.019,6 hpa 1,6 km/h 9,7 km/h S/SW
14.10.2021 21:00 12,4 C 89 % 1.019,7 hpa 6,4 km/h N
14.10.2021 21:10 12,4 C 89 % 1.019,6 hpa N
14.10.2021 21:20 12,4 C 89 % 1.019,4 hpa 1,6 km/h 4,8 km/h S/SW
14.10.2021 21:30 12,4 C 88 % 1.019,4 hpa 3,2 km/h 17,7 km/h S/SW
14.10.2021 21:40 12,4 C 88 % 1.019,4 hpa 3,2 km/h 9,7 km/h S/SW
14.10.2021 21:50 12,4 C 88 % 1.019,3 hpa 3,2 km/h 9,7 km/h W
14.10.2021 22:00 12,4 C 88 % 1.019,2 hpa 3,2 km/h 9,7 km/h S/SW
14.10.2021 22:10 12,5 C 88 % 1.019,0 hpa 3,2 km/h 14,5 km/h W
14.10.2021 22:20 12,5 C 88 % 1.019,2 hpa 3,2 km/h 8,0 km/h W
14.10.2021 22:30 12,5 C 87 % 1.019,2 hpa 3,2 km/h 6,4 km/h W
14.10.2021 22:40 12,6 C 87 % 1.019,1 hpa 1,6 km/h 8,0 km/h S/SW
14.10.2021 22:50 12,6 C 87 % 1.019,1 hpa 3,2 km/h 8,0 km/h S/SW
14.10.2021 23:00 12,5 C 87 % 1.019,0 hpa 3,2 km/h 11,3 km/h S/SW
14.10.2021 23:10 12,5 C 87 % 1.018,8 hpa 3,2 km/h 11,3 km/h S/SW
14.10.2021 23:20 12,4 C 87 % 1.018,7 hpa 1,6 km/h 8,0 km/h S/SW
14.10.2021 23:30 12,4 C 87 % 1.018,6 hpa 1,6 km/h 9,7 km/h S/SW
14.10.2021 23:40 12,3 C 87 % 1.018,5 hpa 1,6 km/h 9,7 km/h S/SW
14.10.2021 23:50 12,3 C 87 % 1.018,4 hpa 3,2 km/h 9,7 km/h S/SW
15.10.2021 00:00 12,2 C 87 % 1.018,4 hpa 3,2 km/h 9,7 km/h S/SW
15.10.2021 00:10 12,2 C 87 % 1.018,2 hpa 3,2 km/h 11,3 km/h W
15.10.2021 00:20 12,3 C 87 % 1.018,2 hpa 4,8 km/h 11,3 km/h S/SW
15.10.2021 00:30 12,3 C 87 % 1.018,1 hpa 4,8 km/h 16,1 km/h S/SW
15.10.2021 00:40 12,3 C 87 % 1.017,9 hpa 3,2 km/h 16,1 km/h W
15.10.2021 00:50 12,3 C 86 % 1.017,5 hpa 3,2 km/h 9,7 km/h S
15.10.2021 01:00 12,3 C 86 % 1.017,4 hpa 3,2 km/h 12,9 km/h W
15.10.2021 01:10 12,3 C 86 % 1.017,2 hpa 3,2 km/h 8,0 km/h S/SW
15.10.2021 01:20 12,3 C 86 % 1.017,2 hpa 9,7 km/h N
15.10.2021 01:30 12,3 C 86 % 1.017,1 hpa 1,6 km/h 8,0 km/h S/SW
15.10.2021 01:40 12,3 C 86 % 1.017,0 hpa 1,6 km/h 6,4 km/h W
15.10.2021 01:50 12,2 C 86 % 1.016,9 hpa 3,2 km/h 8,0 km/h S/SW
15.10.2021 02:00 12,1 C 85 % 1.016,8 hpa 3,2 km/h 9,7 km/h S/SW
15.10.2021 02:10 12,1 C 85 % 1.016,7 hpa 3,2 km/h 14,5 km/h S/SW
15.10.2021 02:20 12,1 C 85 % 1.016,7 hpa 1,6 km/h 11,3 km/h S
15.10.2021 02:30 12,1 C 85 % 1.016,5 hpa 1,6 km/h 8,0 km/h N/NW
15.10.2021 02:40 12,2 C 85 % 1.016,5 hpa 3,2 km/h 9,7 km/h S/SW
15.10.2021 02:50 12,2 C 85 % 1.016,4 hpa 1,6 km/h 11,3 km/h W
15.10.2021 03:00 12,2 C 84 % 1.016,2 hpa 1,6 km/h 11,3 km/h W
15.10.2021 03:10 12,2 C 84 % 1.016,1 hpa 3,2 km/h 11,3 km/h S/SW
15.10.2021 03:20 12,1 C 84 % 1.015,9 hpa 3,2 km/h 9,7 km/h S/SW
15.10.2021 03:30 12,1 C 84 % 1.015,8 hpa 3,2 km/h 9,7 km/h S/SW
15.10.2021 03:40 12,1 C 84 % 1.015,7 hpa 3,2 km/h 9,7 km/h S/SW
15.10.2021 03:50 12,1 C 83 % 1.015,6 hpa 3,2 km/h 9,7 km/h W
15.10.2021 04:00 12,1 C 83 % 1.015,5 hpa 1,6 km/h 11,3 km/h S/SW
15.10.2021 04:10 12,0 C 83 % 1.015,4 hpa 3,2 km/h 12,9 km/h S/SW
15.10.2021 04:20 12,0 C 83 % 1.015,4 hpa 3,2 km/h 8,0 km/h W
15.10.2021 04:30 11,9 C 83 % 1.015,3 hpa 3,2 km/h 9,7 km/h S/SW
15.10.2021 04:40 11,9 C 83 % 1.015,2 hpa 1,6 km/h 9,7 km/h S/SW
15.10.2021 04:50 11,9 C 83 % 1.015,1 hpa 3,2 km/h 9,7 km/h S/SW
15.10.2021 05:00 11,9 C 82 % 1.015,0 hpa 1,6 km/h 11,3 km/h S/SW
15.10.2021 05:10 11,8 C 82 % 1.014,8 hpa 3,2 km/h 11,3 km/h S/SW
15.10.2021 05:20 11,8 C 82 % 1.014,7 hpa 3,2 km/h 11,3 km/h S/SW
15.10.2021 05:30 11,7 C 82 % 1.014,5 hpa 4,8 km/h 11,3 km/h S
15.10.2021 05:40 11,6 C 81 % 1.014,4 hpa 4,8 km/h 19,3 km/h S/SW
15.10.2021 05:50 11,6 C 81 % 1.014,4 hpa 4,8 km/h 19,3 km/h S/SW
15.10.2021 06:00 11,5 C 81 % 1.014,3 hpa 6,4 km/h 17,7 km/h S/SW
15.10.2021 06:10 11,4 C 80 % 1.014,2 hpa 6,4 km/h 17,7 km/h S/SW
15.10.2021 06:20 11,4 C 80 % 1.014,2 hpa 6,4 km/h 20,9 km/h S/SW
15.10.2021 06:30 11,4 C 80 % 1.014,0 hpa 4,8 km/h 14,5 km/h S/SW
15.10.2021 06:40 11,4 C 80 % 1.013,9 hpa 4,8 km/h 16,1 km/h S/SW
15.10.2021 06:50 11,4 C 80 % 1.013,9 hpa 4,8 km/h 16,1 km/h W
15.10.2021 07:00 11,3 C 80 % 1.013,8 hpa 4,8 km/h 17,7 km/h S/SW
15.10.2021 07:10 11,3 C 80 % 1.013,6 hpa 4,8 km/h 14,5 km/h S/SW
15.10.2021 07:20 11,3 C 80 % 1.013,5 hpa 3,2 km/h 9,7 km/h S/SW
15.10.2021 07:30 11,2 C 80 % 1.013,5 hpa 3,2 km/h 16,1 km/h S/SW
15.10.2021 07:40 11,2 C 80 % 1.013,4 hpa 3,2 km/h 11,3 km/h S/SW
15.10.2021 07:50 11,2 C 80 % 1.013,1 hpa 4,8 km/h 14,5 km/h S/SW
15.10.2021 08:00 11,2 C 81 % 1.013,3 hpa 4,8 km/h 16,1 km/h S/SW
15.10.2021 08:10 11,2 C 81 % 1.013,1 hpa 5 W/m 4,8 km/h 17,7 km/h S/SW
15.10.2021 08:20 11,3 C 81 % 1.013,1 hpa 10 W/m 6,4 km/h 22,5 km/h S/SW
15.10.2021 08:30 11,3 C 82 % 1.013,1 hpa 15 W/m 4,8 km/h 11,3 km/h S/SW
15.10.2021 08:40 11,4 C 82 % 1.013,1 hpa 14 W/m 4,8 km/h 16,1 km/h S/SW
15.10.2021 08:50 11,4 C 82 % 1.013,1 hpa 15 W/m 4,8 km/h 19,3 km/h S/SW
15.10.2021 09:00 11,4 C 82 % 1.013,0 hpa 28 W/m 4,8 km/h 19,3 km/h S/SW
15.10.2021 09:10 11,5 C 82 % 1.013,0 hpa 31 W/m 6,4 km/h 17,7 km/h S/SW
15.10.2021 09:20 11,6 C 82 % 1.013,2 hpa 35 W/m 4,8 km/h 16,1 km/h S/SW
15.10.2021 09:30 11,7 C 82 % 1.013,3 hpa 18 W/m 4,8 km/h 16,1 km/h W
15.10.2021 09:40 11,7 C 82 % 1.013,2 hpa 28 W/m 4,8 km/h 14,5 km/h S/SW
15.10.2021 09:50 11,7 C 82 % 1.013,2 hpa 43 W/m 6,4 km/h 16,1 km/h W
15.10.2021 10:00 11,8 C 82 % 1.013,3 hpa 36 W/m 6,4 km/h 19,3 km/h S/SW
15.10.2021 10:10 11,8 C 83 % 1.013,3 hpa 25 W/m 4,8 km/h 14,5 km/h S/SW
15.10.2021 10:20 11,8 C 83 % 1.013,3 hpa 29 W/m 6,4 km/h 17,7 km/h W
15.10.2021 10:30 11,9 C 83 % 1.013,3 hpa 30 W/m 6,4 km/h 19,3 km/h W
15.10.2021 10:40 12,0 C 83 % 1.013,3 hpa 26 W/m 6,4 km/h 16,1 km/h S/SW
15.10.2021 10:50 12,1 C 85 % 1.013,5 hpa 0,254 l 37 W/m 6,4 km/h 17,7 km/h W
15.10.2021 11:00 12,1 C 86 % 1.013,7 hpa 34 W/m 6,4 km/h 22,5 km/h W
15.10.2021 11:10 11,9 C 87 % 1.013,9 hpa 0,254 l 18 W/m 8,0 km/h 17,7 km/h W
15.10.2021 11:20 11,7 C 88 % 1.014,1 hpa 0,254 l 20 W/m 4,8 km/h 16,1 km/h W
15.10.2021 11:30 11,6 C 89 % 1.014,3 hpa 35 W/m 8,0 km/h 19,3 km/h W
15.10.2021 11:40 11,4 C 90 % 1.014,5 hpa 43 W/m 6,4 km/h 20,9 km/h W
15.10.2021 11:50 11,4 C 91 % 1.014,7 hpa 66 W/m 6,4 km/h 20,9 km/h W
15.10.2021 12:00 11,4 C 91 % 1.015,0 hpa 0,254 l 46 W/m 4,8 km/h 17,7 km/h W
15.10.2021 12:10 11,3 C 91 % 1.015,0 hpa 61 W/m 4,8 km/h 22,5 km/h N/NW
15.10.2021 12:20 11,2 C 91 % 1.015,2 hpa 75 W/m 8,0 km/h N
15.10.2021 12:30 11,2 C 91 % 1.015,4 hpa 75 W/m 1,6 km/h 9,7 km/h N/NW
15.10.2021 12:40 11,2 C 91 % 1.015,5 hpa 121 W/m 10 min N
15.10.2021 12:50 11,3 C 92 % 1.015,8 hpa 110 W/m 1,6 km/h 9,7 km/h W
15.10.2021 13:00 11,4 C 91 % 1.016,0 hpa 82 W/m 3,2 km/h 12,9 km/h N/NW
15.10.2021 13:10 11,2 C 90 % 1.016,1 hpa 103 W/m 3,2 km/h 12,9 km/h N/NW
15.10.2021 13:20 11,1 C 90 % 1.016,1 hpa 171 W/m 10 min 1,6 km/h 11,3 km/h N/NW
15.10.2021 13:30 11,3 C 90 % 1.016,3 hpa 222 W/m 10 min 3,2 km/h 16,1 km/h N/NW
15.10.2021 13:40 11,4 C 89 % 1.016,3 hpa 212 W/m 10 min 4,8 km/h 19,3 km/h W
15.10.2021 13:50 11,6 C 87 % 1.016,3 hpa 161 W/m 10 min 4,8 km/h 19,3 km/h W
15.10.2021 14:00 12,2 C 86 % 1.016,4 hpa 264 W/m 10 min 3,2 km/h 11,3 km/h N/NW
15.10.2021 14:10 12,3 C 84 % 1.016,4 hpa 145 W/m 10 min 4,8 km/h 14,5 km/h N/NW
15.10.2021 14:20 12,4 C 83 % 1.016,4 hpa 550 W/m 10 min 4,8 km/h 16,1 km/h N/NW
15.10.2021 14:30 13,1 C 81 % 1.016,4 hpa 325 W/m 10 min 3,2 km/h 11,3 km/h W
15.10.2021 14:40 13,0 C 80 % 1.016,5 hpa 152 W/m 10 min 1,6 km/h 9,7 km/h N/NW
15.10.2021 14:50 13,1 C 79 % 1.016,5 hpa 314 W/m 10 min 3,2 km/h 9,7 km/h W
15.10.2021 15:00 13,2 C 78 % 1.016,4 hpa 333 W/m 10 min 1,6 km/h 8,0 km/h N/NW
15.10.2021 15:10 13,6 C 75 % 1.016,4 hpa 68 W/m 3,2 km/h 14,5 km/h N/NW
15.10.2021 15:20 13,4 C 75 % 1.016,5 hpa 160 W/m 10 min 4,8 km/h N
15.10.2021 15:30 13,2 C 76 % 1.016,5 hpa 344 W/m 10 min 1,6 km/h 9,7 km/h W
15.10.2021 15:40 13,7 C 73 % 1.016,6 hpa 390 W/m 10 min 3,2 km/h 16,1 km/h W
15.10.2021 15:50 14,0 C 69 % 1.016,7 hpa 405 W/m 10 min 4,8 km/h 16,1 km/h W
15.10.2021 16:00 14,2 C 71 % 1.016,8 hpa 144 W/m 10 min 1,6 km/h 16,1 km/h W
15.10.2021 16:10 14,1 C 70 % 1.016,8 hpa 105 W/m 1,6 km/h 11,3 km/h W
15.10.2021 16:20 13,8 C 71 % 1.016,9 hpa 54 W/m 1,6 km/h 6,4 km/h N/NW
15.10.2021 16:30 13,6 C 72 % 1.017,0 hpa 85 W/m 1,6 km/h 9,7 km/h W
15.10.2021 16:40 13,3 C 74 % 1.017,0 hpa 121 W/m 10 min 1,6 km/h 9,7 km/h N/NW
15.10.2021 16:50 13,1 C 74 % 1.017,2 hpa 182 W/m 10 min 1,6 km/h 6,4 km/h N/NW
15.10.2021 17:00 13,2 C 71 % 1.017,2 hpa 244 W/m 10 min 1,6 km/h 9,7 km/h N/NW
15.10.2021 17:10 13,2 C 70 % 1.017,3 hpa 114 W/m 1,6 km/h 6,4 km/h W
Minimum: 11,1 C
13:20
69 %
15:50
1.013,0 hpa
09:10

17:10

08:00

15:20
13,2 km/h
17:10
S
2,8%
Maximum: 14,2 C
16:00
92 %
12:50
1.020,8 hpa
17:40
0,254 l
12:00
550 W/m
14:20
8,0 km/h
11:30
22,5 km/h
12:10
S/SW
49,3%
Durchschnitt/
Summe:
12,2 C 85 % 1.016,6 hpa # 1,0 l 47 W/m 3,4 km/h 12,4 km/h S/SW
230,1